Time,TemperatureF,DewpointF,PressureIn,WindDirection,WindDirectionDegrees,WindSpeedMPH,WindSpeedGustMPH,Humidity,HourlyPrecipIn,Conditions,Clouds,dailyrainin,SolarRadiationWatts/m^2,SoftwareType,DateUTC
2013-07-20 00:02:00,75.0,65.0,-100.00,SW,232,1.0,6.0,71,0.00,,,0.00,0.000000,,2013-07-20 05:02:00,
2013-07-20 00:32:00,73.0,66.0,-100.00,SW,223,0.0,5.0,79,0.00,,,0.00,0.000000,,2013-07-20 05:32:00,
2013-07-20 00:52:00,73.0,66.0,-100.00,SW,223,0.0,5.0,79,0.00,,,0.00,0.000000,,2013-07-20 05:52:00,
2013-07-20 01:01:00,73.0,66.0,-100.00,SW,223,0.0,5.0,79,0.00,,,0.00,0.000000,,2013-07-20 06:01:00,
2013-07-20 01:32:00,73.0,67.0,-100.00,SW,225,0.0,0.0,81,0.00,,,0.00,0.000000,,2013-07-20 06:32:00,
2013-07-20 01:43:00,73.0,67.0,-100.00,SW,225,0.0,0.0,81,0.00,,,0.00,0.000000,,2013-07-20 06:43:00,
2013-07-20 01:52:00,73.0,67.0,-100.00,SW,225,0.0,0.0,81,0.00,,,0.00,0.000000,,2013-07-20 06:52:00,
2013-07-20 02:01:00,73.0,67.0,-100.00,SW,225,0.0,0.0,81,0.00,,,0.00,0.000000,,2013-07-20 07:01:00,
2013-07-20 02:33:00,72.0,68.0,-100.00,SW,230,0.0,0.0,86,0.00,,,0.00,0.000000,,2013-07-20 07:33:00,
2013-07-20 02:44:00,72.0,68.0,-100.00,SW,230,0.0,0.0,86,0.00,,,0.00,0.000000,,2013-07-20 07:44:00,
2013-07-20 02:54:00,72.0,68.0,-100.00,SW,230,0.0,0.0,86,0.00,,,0.00,0.000000,,2013-07-20 07:54:00,
2013-07-20 03:02:00,72.0,68.0,-100.00,SW,230,0.0,0.0,86,0.00,,,0.00,0.000000,,2013-07-20 08:02:00,
2013-07-20 03:32:00,72.0,68.0,-100.00,West,269,0.0,6.0,87,0.00,,,0.00,0.000000,,2013-07-20 08:32:00,
2013-07-20 03:44:00,72.0,68.0,-100.00,West,269,0.0,6.0,87,0.00,,,0.00,0.000000,,2013-07-20 08:44:00,
2013-07-20 03:52:00,72.0,68.0,-100.00,West,269,0.0,6.0,87,0.00,,,0.00,0.000000,,2013-07-20 08:52:00,
2013-07-20 04:02:00,72.0,68.0,-100.00,West,269,0.0,6.0,87,0.00,,,0.00,0.000000,,2013-07-20 09:02:00,
2013-07-20 04:33:00,72.0,69.0,-100.00,West,268,0.0,5.0,89,0.00,,,0.00,0.000000,,2013-07-20 09:33:00,
2013-07-20 04:43:00,72.0,69.0,-100.00,West,268,0.0,5.0,89,0.00,,,0.00,0.000000,,2013-07-20 09:43:00,
2013-07-20 04:53:00,72.0,69.0,-100.00,West,268,0.0,5.0,89,0.00,,,0.00,0.000000,,2013-07-20 09:53:00,
2013-07-20 05:01:00,72.0,69.0,-100.00,West,268,0.0,5.0,89,0.00,,,0.00,0.000000,,2013-07-20 10:01:00,
2013-07-20 05:32:00,71.0,69.0,-100.00,WNW,297,0.0,4.0,92,0.00,,,0.00,0.000000,,2013-07-20 10:32:00,
2013-07-20 05:42:00,71.0,69.0,-100.00,WNW,297,0.0,4.0,92,0.00,,,0.00,0.000000,,2013-07-20 10:42:00,
2013-07-20 05:52:00,71.0,69.0,-100.00,WNW,297,0.0,4.0,92,0.00,,,0.00,0.000000,,2013-07-20 10:52:00,
2013-07-20 06:02:00,71.0,69.0,-100.00,WNW,297,0.0,4.0,92,0.00,,,0.00,0.000000,,2013-07-20 11:02:00,
2013-07-20 06:43:00,71.0,69.0,-100.00,WSW,258,0.0,0.0,93,0.00,,,0.00,6.000000,,2013-07-20 11:43:00,
2013-07-20 06:52:00,71.0,69.0,-100.00,WSW,258,0.0,0.0,93,0.00,,,0.00,6.000000,,2013-07-20 11:52:00,
2013-07-20 07:01:00,71.0,69.0,-100.00,WSW,258,0.0,0.0,93,0.00,,,0.00,6.000000,,2013-07-20 12:01:00,
2013-07-20 07:52:00,76.0,70.0,-100.00,WSW,241,0.0,0.0,83,0.00,,,0.00,121.000000,,2013-07-20 12:52:00,
2013-07-20 08:01:00,76.0,70.0,-100.00,WSW,241,0.0,0.0,83,0.00,,,0.00,121.000000,,2013-07-20 13:01:00,
2013-07-20 08:43:00,75.0,71.0,-100.00,SSE,165,0.0,0.0,87,0.00,,,0.00,156.000000,,2013-07-20 13:43:00,
2013-07-20 08:53:00,75.0,71.0,-100.00,SSE,165,0.0,0.0,87,0.00,,,0.00,156.000000,,2013-07-20 13:53:00,
2013-07-20 09:02:00,75.0,71.0,-100.00,SSE,165,0.0,0.0,87,0.00,,,0.00,156.000000,,2013-07-20 14:02:00,
2013-07-20 09:32:00,80.0,72.0,-100.00,West,280,0.0,0.0,76,0.00,,,0.00,346.000000,,2013-07-20 14:32:00,
2013-07-20 09:43:00,80.0,72.0,-100.00,West,280,0.0,0.0,76,0.00,,,0.00,346.000000,,2013-07-20 14:43:00,
2013-07-20 09:53:00,80.0,72.0,-100.00,West,280,0.0,0.0,76,0.00,,,0.00,346.000000,,2013-07-20 14:53:00,
2013-07-20 10:01:00,80.0,72.0,-100.00,West,280,0.0,0.0,76,0.00,,,0.00,346.000000,,2013-07-20 15:01:00,
2013-07-20 10:33:00,81.0,70.0,-100.00,WNW,283,1.0,9.0,69,0.00,,,0.00,518.000000,,2013-07-20 15:33:00,
2013-07-20 10:44:00,81.0,70.0,-100.00,WNW,283,1.0,9.0,69,0.00,,,0.00,518.000000,,2013-07-20 15:44:00,
2013-07-20 10:53:00,81.0,70.0,-100.00,WNW,283,1.0,9.0,69,0.00,,,0.00,518.000000,,2013-07-20 15:53:00,
2013-07-20 11:01:00,81.0,70.0,-100.00,WNW,283,1.0,9.0,69,0.00,,,0.00,518.000000,,2013-07-20 16:01:00,
2013-07-20 11:32:00,82.0,70.0,-100.00,West,272,2.0,9.0,67,0.00,,,0.00,616.000000,,2013-07-20 16:32:00,
2013-07-20 11:44:00,82.0,70.0,-100.00,West,272,2.0,9.0,67,0.00,,,0.00,616.000000,,2013-07-20 16:44:00,
2013-07-20 11:52:00,82.0,70.0,-100.00,West,272,2.0,9.0,67,0.00,,,0.00,616.000000,,2013-07-20 16:52:00,
2013-07-20 12:02:00,82.0,70.0,-100.00,West,272,2.0,9.0,67,0.00,,,0.00,616.000000,,2013-07-20 17:02:00,
2013-07-20 12:32:00,84.0,68.0,-100.00,SSW,212,4.0,11.0,59,0.00,,,0.00,640.000000,,2013-07-20 17:32:00,
2013-07-20 12:43:00,84.0,68.0,-100.00,SSW,212,4.0,11.0,59,0.00,,,0.00,640.000000,,2013-07-20 17:43:00,
2013-07-20 12:53:00,84.0,68.0,-100.00,SSW,212,4.0,11.0,59,0.00,,,0.00,640.000000,,2013-07-20 17:53:00,
2013-07-20 13:01:00,84.0,68.0,-100.00,SSW,212,4.0,11.0,59,0.00,,,0.00,640.000000,,2013-07-20 18:01:00,
2013-07-20 13:06:00,85.0,70.0,-100.00,SW,231,4.0,14.0,61,0.00,,,0.00,758.000000,,2013-07-20 18:06:00,
2013-07-20 13:38:00,85.0,70.0,-100.00,SW,231,4.0,14.0,61,0.00,,,0.00,758.000000,,2013-07-20 18:38:00,
2013-07-20 13:47:00,85.0,70.0,-100.00,SW,231,4.0,14.0,61,0.00,,,0.00,758.000000,,2013-07-20 18:47:00,
2013-07-20 13:59:00,85.0,70.0,-100.00,SW,231,4.0,14.0,61,0.00,,,0.00,758.000000,,2013-07-20 18:59:00,
2013-07-20 14:06:00,82.0,69.0,-100.00,WNW,288,1.0,18.0,65,0.00,,,0.00,528.000000,,2013-07-20 19:06:00,
2013-07-20 14:35:00,82.0,69.0,-100.00,WNW,288,1.0,18.0,65,0.00,,,0.00,528.000000,,2013-07-20 19:35:00,
2013-07-20 14:44:00,82.0,69.0,-100.00,WNW,288,1.0,18.0,65,0.00,,,0.00,528.000000,,2013-07-20 19:44:00,
2013-07-20 15:06:00,85.0,68.0,-100.00,WNW,291,3.0,11.0,56,0.00,,,0.00,820.000000,,2013-07-20 20:06:00,
2013-07-20 15:35:00,85.0,68.0,-100.00,WNW,291,3.0,11.0,56,0.00,,,0.00,820.000000,,2013-07-20 20:35:00,
2013-07-20 15:47:00,85.0,68.0,-100.00,WNW,291,3.0,11.0,56,0.00,,,0.00,820.000000,,2013-07-20 20:47:00,
2013-07-20 15:58:00,85.0,68.0,-100.00,WNW,291,3.0,11.0,56,0.00,,,0.00,820.000000,,2013-07-20 20:58:00,
2013-07-20 16:36:00,85.0,69.0,-100.00,WNW,290,1.0,11.0,59,0.00,,,0.00,641.000000,,2013-07-20 21:36:00,
2013-07-20 16:48:00,85.0,69.0,-100.00,WNW,290,1.0,11.0,59,0.00,,,0.00,641.000000,,2013-07-20 21:48:00,
2013-07-20 16:57:00,85.0,69.0,-100.00,WNW,290,1.0,11.0,59,0.00,,,0.00,641.000000,,2013-07-20 21:57:00,
2013-07-20 17:50:00,82.0,71.0,-100.00,SW,215,2.0,9.0,70,0.00,,,0.00,327.000000,,2013-07-20 22:50:00,
2013-07-20 17:57:00,82.0,71.0,-100.00,SW,215,2.0,9.0,70,0.00,,,0.00,327.000000,,2013-07-20 22:57:00,
2013-07-20 18:05:00,82.0,71.0,-100.00,SW,215,2.0,9.0,70,0.00,,,0.00,327.000000,,2013-07-20 23:05:00,
2013-07-20 18:06:00,80.0,71.0,-100.00,WSW,240,1.0,7.0,74,0.00,,,0.00,189.000000,,2013-07-20 23:06:00,
2013-07-20 18:40:00,80.0,71.0,-100.00,WSW,240,1.0,7.0,74,0.00,,,0.00,189.000000,,2013-07-20 23:40:00,
2013-07-20 19:06:00,78.0,71.0,-100.00,WSW,243,2.0,8.0,80,0.00,,,0.00,89.000000,,2013-07-21 00:06:00,
2013-07-20 19:45:00,78.0,71.0,-100.00,WSW,243,2.0,8.0,80,0.00,,,0.00,89.000000,,2013-07-21 00:45:00,
2013-07-20 19:56:00,78.0,71.0,-100.00,WSW,243,2.0,8.0,80,0.00,,,0.00,89.000000,,2013-07-21 00:56:00,
2013-07-20 20:06:00,75.0,70.0,-100.00,SW,227,0.0,7.0,84,0.00,,,0.00,18.000000,,2013-07-21 01:06:00,
2013-07-20 20:37:00,75.0,70.0,-100.00,SW,227,0.0,7.0,84,0.00,,,0.00,18.000000,,2013-07-21 01:37:00,
2013-07-20 20:49:00,-999.0,-99.9,-100.00,SW,227,0.0,7.0,-999,-99.99,,,-99.99,18.000000,,2013-07-21 01:49:00,
2013-07-20 20:59:00,75.0,70.0,-100.00,SW,227,0.0,7.0,84,0.00,,,0.00,18.000000,,2013-07-21 01:59:00,
2013-07-20 21:38:00,74.0,69.0,-100.00,WSW,254,0.0,9.0,85,0.00,,,0.00,0.000000,,2013-07-21 02:38:00,
2013-07-20 21:47:00,74.0,69.0,-100.00,WSW,254,0.0,9.0,85,0.00,,,0.00,0.000000,,2013-07-21 02:47:00,
2013-07-20 21:58:00,74.0,69.0,-100.00,WSW,254,0.0,9.0,85,0.00,,,0.00,0.000000,,2013-07-21 02:58:00,
2013-07-20 22:05:00,74.0,69.0,-100.00,WSW,254,0.0,9.0,85,0.00,,,0.00,0.000000,,2013-07-21 03:05:00,
2013-07-20 22:37:00,73.0,69.0,-100.00,SW,229,0.0,9.0,87,0.00,,,0.00,0.000000,,2013-07-21 03:37:00,
2013-07-20 22:47:00,73.0,69.0,-100.00,SW,229,0.0,9.0,87,0.00,,,0.00,0.000000,,2013-07-21 03:47:00,
2013-07-20 23:00:00,73.0,69.0,-100.00,SW,229,0.0,9.0,87,0.00,,,0.00,0.000000,,2013-07-21 04:00:00,
2013-07-20 23:01:00,73.0,69.0,-100.00,SW,229,0.0,9.0,87,0.00,,,0.00,0.000000,,2013-07-21 04:01:00,
2013-07-20 23:32:00,73.0,70.0,-100.00,South,178,0.0,6.0,89,0.00,,,0.00,0.000000,,2013-07-21 04:32:00,
2013-07-20 23:43:00,73.0,70.0,-100.00,South,178,0.0,6.0,89,0.00,,,0.00,0.000000,,2013-07-21 04:43:00,
2013-07-20 23:53:00,73.0,70.0,-100.00,South,178,0.0,6.0,89,0.00,,,0.00,0.000000,,2013-07-21 04:53:00,